Precipitable_Water
0.42 0.33 0.29 0.27 0.34 0.39 0.43 0.44 0.42 0.42 0.42 0.40 0.40 0.40 0.38 0.39 0.38 0.42 0.51 0.59 0.64 0.58 0.55 0.55 0.56 0.63 0.72 0.76 0.75 0.75 0.82 0.84 0.81 0.78 0.78 0.83 0.89 0.92 0.93 0.93 0.96 1.00 1.04 1.17 1.23 1.27 1.28 1.32 1.38 1.41 1.43 1.42 1.44 1.48 1.51 1.52 1.54 1.55 1.56 1.58 1.53 1.61 1.67 1.68 1.66 1.64 1.59 1.51 1.49 1.52 1.48 1.45 1.51 1.51 1.51 1.49 1.50 1.45 1.39 1.33 1.28 1.23 1.18 1.08 0.86 0.66
0.34 0.26 0.27 0.30 0.34 0.39 0.41 0.39 0.38 0.38 0.38 0.35 0.31 0.32 0.32 0.37 0.34 0.41 0.46 0.52 0.59 0.51 0.49 0.56 0.53 0.58 0.69 0.78 0.78 0.80 0.78 0.77 0.75 0.74 0.73 0.75 0.84 0.89 0.90 0.90 0.92 0.96 1.08 1.15 1.21 1.27 1.29 1.32 1.37 1.41 1.42 1.43 1.37 1.44 1.50 1.49 1.51 1.54 1.57 1.54 1.56 1.62 1.65 1.67 1.66 1.63 1.60 1.56 1.49 1.46 1.47 1.50 1.53 1.53 1.50 1.46 1.46 1.39 1.37 1.32 1.25 1.20 1.13 0.96 0.75 0.57
0.21 0.18 0.22 0.32 0.36 0.39 0.37 0.38 0.38 0.35 0.33 0.33 0.30 0.27 0.27 0.27 0.26 0.28 0.33 0.42 0.54 0.55 0.43 0.49 0.49 0.49 0.62 0.70 0.79 0.78 0.72 0.74 0.75 0.73 0.70 0.72 0.78 0.85 0.89 0.88 0.90 0.96 0.99 1.05 1.11 1.22 1.27 1.31 1.35 1.39 1.41 1.42 1.42 1.44 1.47 1.53 1.55 1.55 1.55 1.56 1.58 1.62 1.65 1.67 1.68 1.64 1.60 1.61 1.58 1.54 1.54 1.56 1.57 1.62 1.59 1.52 1.48 1.44 1.37 1.30 1.25 1.19 1.06 0.85 0.61 0.52
0.17 0.17 0.24 0.31 0.34 0.33 0.33 0.34 0.32 0.30 0.30 0.30 0.29 0.25 0.24 0.26 0.23 0.21 0.22 0.30 0.44 0.45 0.36 0.42 0.44 0.44 0.58 0.65 0.70 0.77 0.76 0.73 0.75 0.76 0.74 0.76 0.75 0.78 0.79 0.82 0.86 0.88 0.92 0.94 1.02 1.09 1.21 1.29 1.34 1.38 1.39 1.43 1.47 1.47 1.49 1.52 1.53 1.56 1.56 1.57 1.59 1.62 1.68 1.69 1.70 1.66 1.69 1.68 1.65 1.64 1.64 1.65 1.62 1.57 1.59 1.51 1.49 1.46 1.39 1.29 1.24 1.14 1.03 0.78 0.54 0.52
0.15 0.15 0.24 0.28 0.30 0.29 0.28 0.28 0.27 0.27 0.27 0.30 0.29 0.29 0.27 0.26 0.26 0.23 0.20 0.21 0.35 0.46 0.46 0.44 0.34 0.35 0.45 0.49 0.59 0.72 0.77 0.73 0.75 0.78 0.77 0.78 0.78 0.80 0.87 0.86 0.86 0.85 0.89 0.91 0.98 1.07 1.14 1.22 1.29 1.34 1.40 1.45 1.44 1.45 1.46 1.49 1.52 1.53 1.53 1.57 1.60 1.62 1.66 1.71 1.71 1.71 1.72 1.69 1.65 1.63 1.64 1.65 1.63 1.61 1.54 1.47 1.43 1.43 1.38 1.29 1.17 1.06 1.00 0.74 0.56 0.54
0.16 0.18 0.21 0.21 0.21 0.22 0.23 0.23 0.25 0.27 0.25 0.27 0.29 0.27 0.26 0.25 0.24 0.22 0.20 0.19 0.19 0.19 0.26 0.22 0.17 0.22 0.36 0.41 0.44 0.54 0.67 0.65 0.72 0.72 0.71 0.72 0.76 0.80 0.82 0.80 0.84 0.87 0.91 0.93 0.96 1.03 1.12 1.18 1.29 1.35 1.39 1.40 1.44 1.46 1.50 1.54 1.55 1.53 1.55 1.59 1.61 1.65 1.69 1.70 1.72 1.74 1.72 1.66 1.58 1.52 1.47 1.45 1.46 1.41 1.41 1.38 1.37 1.38 1.33 1.25 1.17 1.03 0.91 0.74 0.60 0.54
0.13 0.16 0.17 0.16 0.17 0.18 0.19 0.19 0.23 0.25 0.24 0.24 0.25 0.28 0.27 0.24 0.22 0.21 0.18 0.16 0.14 0.13 0.17 0.20 0.15 0.14 0.31 0.35 0.43 0.53 0.56 0.57 0.67 0.70 0.69 0.72 0.77 0.77 0.77 0.80 0.82 0.82 0.86 0.94 1.01 1.06 1.10 1.19 1.24 1.30 1.33 1.39 1.42 1.49 1.56 1.57 1.55 1.55 1.57 1.60 1.62 1.63 1.67 1.72 1.74 1.75 1.72 1.65 1.61 1.56 1.51 1.50 1.47 1.41 1.44 1.47 1.43 1.37 1.33 1.25 1.13 1.02 0.91 0.75 0.62 0.53
0.14 0.14 0.13 0.13 0.13 0.14 0.15 0.15 0.22 0.25 0.20 0.18 0.24 0.25 0.24 0.22 0.18 0.16 0.15 0.15 0.14 0.16 0.15 0.16 0.17 0.17 0.19 0.29 0.38 0.47 0.53 0.58 0.63 0.66 0.67 0.71 0.75 0.76 0.79 0.82 0.84 0.84 0.87 0.88 0.94 1.02 1.09 1.16 1.20 1.24 1.35 1.39 1.43 1.50 1.56 1.58 1.57 1.53 1.56 1.60 1.63 1.67 1.70 1.73 1.77 1.75 1.73 1.66 1.63 1.58 1.55 1.56 1.53 1.50 1.47 1.46 1.42 1.41 1.34 1.20 1.11 1.04 0.92 0.77 0.69 0.59
0.15 0.14 0.15 0.14 0.14 0.14 0.13 0.15 0.17 0.19 0.18 0.20 0.23 0.22 0.22 0.20 0.18 0.16 0.14 0.13 0.14 0.12 0.11 0.14 0.18 0.17 0.18 0.24 0.41 0.52 0.49 0.54 0.58 0.62 0.63 0.68 0.74 0.76 0.78 0.81 0.85 0.88 0.90 0.92 0.90 0.96 1.04 1.11 1.21 1.30 1.35 1.45 1.48 1.50 1.51 1.56 1.59 1.59 1.60 1.63 1.68 1.68 1.71 1.75 1.80 1.77 1.75 1.72 1.67 1.63 1.59 1.56 1.59 1.58 1.53 1.50 1.46 1.40 1.34 1.24 1.15 1.05 0.94 0.82 0.75 0.72
0.16 0.16 0.17 0.17 0.15 0.14 0.16 0.18 0.19 0.20 0.17 0.21 0.21 0.19 0.19 0.19 0.18 0.15 0.13 0.13 0.13 0.14 0.15 0.17 0.18 0.15 0.16 0.30 0.34 0.48 0.48 0.50 0.54 0.59 0.61 0.66 0.71 0.73 0.74 0.77 0.84 0.91 0.94 0.95 0.94 0.99 1.04 1.13 1.19 1.29 1.38 1.43 1.47 1.52 1.56 1.61 1.65 1.65 1.64 1.63 1.67 1.68 1.72 1.76 1.80 1.80 1.77 1.75 1.73 1.67 1.62 1.57 1.57 1.58 1.53 1.50 1.44 1.39 1.35 1.27 1.17 1.07 0.97 0.84 0.78 0.77
0.17 0.19 0.22 0.19 0.16 0.17 0.18 0.19 0.20 0.20 0.20 0.20 0.19 0.16 0.16 0.15 0.15 0.15 0.13 0.13 0.11 0.13 0.15 0.16 0.17 0.16 0.13 0.24 0.32 0.39 0.46 0.48 0.51 0.59 0.63 0.70 0.74 0.76 0.75 0.75 0.81 0.87 0.91 0.93 0.95 1.02 1.05 1.16 1.20 1.27 1.28 1.38 1.48 1.55 1.60 1.63 1.67 1.70 1.68 1.65 1.66 1.72 1.75 1.78 1.80 1.81 1.78 1.77 1.76 1.72 1.66 1.61 1.57 1.54 1.50 1.45 1.41 1.38 1.36 1.27 1.17 1.09 1.01 0.90 0.80 0.80
0.18 0.18 0.16 0.17 0.19 0.19 0.19 0.18 0.20 0.22 0.22 0.20 0.18 0.16 0.14 0.14 0.16 0.15 0.15 0.16 0.10 0.13 0.15 0.17 0.16 0.17 0.14 0.26 0.30 0.41 0.48 0.56 0.56 0.57 0.59 0.62 0.66 0.66 0.69 0.74 0.81 0.85 0.87 0.90 0.95 0.98 1.04 1.07 1.16 1.24 1.26 1.34 1.44 1.54 1.61 1.67 1.72 1.73 1.74 1.72 1.70 1.76 1.78 1.81 1.85 1.86 1.85 1.82 1.80 1.80 1.74 1.66 1.62 1.57 1.51 1.46 1.40 1.40 1.35 1.30 1.19 1.14 1.08 0.96 0.86 0.82
0.14 0.15 0.17 0.18 0.19 0.18 0.18 0.18 0.19 0.21 0.21 0.20 0.19 0.16 0.12 0.11 0.12 0.10 0.13 0.12 0.12 0.12 0.16 0.17 0.18 0.21 0.24 0.35 0.39 0.43 0.57 0.65 0.67 0.63 0.57 0.54 0.57 0.62 0.68 0.73 0.75 0.80 0.85 0.90 0.94 0.97 1.00 1.00 1.07 1.17 1.24 1.33 1.41 1.49 1.59 1.67 1.72 1.75 1.77 1.79 1.75 1.76 1.85 1.89 1.92 1.92 1.92 1.87 1.84 1.81 1.77 1.73 1.67 1.61 1.57 1.51 1.45 1.44 1.37 1.28 1.19 1.15 1.09 0.99 0.85 0.80
0.13 0.16 0.16 0.17 0.18 0.20 0.19 0.16 0.17 0.17 0.19 0.19 0.17 0.15 0.12 0.10 0.10 0.09 0.11 0.14 0.13 0.14 0.16 0.17 0.25 0.22 0.35 0.38 0.46 0.45 0.52 0.56 0.59 0.61 0.61 0.57 0.56 0.59 0.63 0.67 0.72 0.77 0.82 0.88 0.94 0.97 1.01 1.05 1.11 1.20 1.26 1.33 1.44 1.56 1.65 1.73 1.77 1.81 1.82 1.85 1.84 1.85 1.92 1.98 1.96 1.95 1.94 1.91 1.90 1.89 1.84 1.80 1.74 1.66 1.60 1.54 1.49 1.45 1.37 1.28 1.22 1.17 1.09 0.98 0.88 0.82
0.09 0.09 0.13 0.15 0.15 0.19 0.19 0.18 0.18 0.18 0.18 0.19 0.19 0.18 0.15 0.13 0.10 0.09 0.11 0.10 0.10 0.11 0.14 0.22 0.24 0.26 0.25 0.34 0.52 0.55 0.58 0.58 0.61 0.64 0.64 0.65 0.65 0.66 0.70 0.72 0.73 0.77 0.81 0.89 0.92 0.95 0.99 1.06 1.13 1.21 1.32 1.41 1.48 1.56 1.68 1.77 1.81 1.85 1.86 1.87 1.90 1.91 1.97 1.99 1.99 1.90 1.84 1.83 1.87 1.87 1.85 1.84 1.81 1.73 1.66 1.60 1.52 1.47 1.40 1.34 1.26 1.20 1.12 1.03 0.94 0.89
0.12 0.11 0.14 0.18 0.19 0.19 0.18 0.20 0.20 0.20 0.19 0.20 0.21 0.20 0.17 0.15 0.16 0.11 0.12 0.12 0.11 0.12 0.14 0.21 0.24 0.37 0.37 0.49 0.60 0.66 0.62 0.63 0.65 0.68 0.70 0.68 0.72 0.73 0.71 0.70 0.71 0.75 0.81 0.89 0.92 0.98 1.05 1.13 1.21 1.32 1.41 1.46 1.49 1.54 1.59 1.69 1.81 1.82 1.83 1.89 1.96 1.99 1.94 1.97 1.95 1.87 1.84 1.87 1.87 1.85 1.84 1.85 1.86 1.79 1.74 1.64 1.56 1.50 1.45 1.34 1.26 1.19 1.13 1.07 0.98 0.93
0.14 0.12 0.15 0.18 0.19 0.18 0.19 0.20 0.20 0.21 0.15 0.20 0.18 0.16 0.17 0.19 0.16 0.14 0.14 0.16 0.14 0.13 0.16 0.28 0.32 0.43 0.51 0.60 0.62 0.63 0.64 0.65 0.71 0.72 0.72 0.74 0.74 0.74 0.72 0.73 0.76 0.80 0.86 0.93 0.96 1.02 1.09 1.20 1.30 1.34 1.38 1.45 1.56 1.62 1.66 1.68 1.67 1.69 1.79 1.83 1.83 1.82 1.83 1.85 1.92 1.93 1.93 1.88 1.85 1.86 1.85 1.83 1.81 1.80 1.71 1.63 1.57 1.53 1.46 1.36 1.24 1.17 1.13 1.09 1.03 0.93
0.13 0.14 0.17 0.18 0.17 0.20 0.22 0.22 0.22 0.21 0.21 0.19 0.16 0.18 0.18 0.18 0.17 0.14 0.11 0.13 0.13 0.12 0.26 0.34 0.29 0.36 0.34 0.31 0.62 0.59 0.59 0.68 0.68 0.71 0.76 0.73 0.72 0.68 0.73 0.77 0.83 0.88 0.95 1.03 1.08 1.14 1.22 1.27 1.30 1.33 1.45 1.59 1.67 1.73 1.74 1.74 1.78 1.77 1.81 1.85 1.88 1.90 1.86 1.90 1.93 1.92 1.93 1.92 1.87 1.85 1.89 1.88 1.85 1.79 1.74 1.68 1.61 1.55 1.45 1.36 1.26 1.21 1.15 1.11 1.06 0.95
0.19 0.13 0.16 0.19 0.19 0.21 0.22 0.21 0.21 0.22 0.23 0.19 0.18 0.20 0.13 0.13 0.11 0.14 0.12 0.10 0.12 0.14 0.27 0.33 0.37 0.38 0.39 0.37 0.55 0.53 0.60 0.68 0.75 0.79 0.79 0.77 0.78 0.83 0.83 0.85 0.91 1.03 1.11 1.14 1.17 1.20 1.23 1.26 1.31 1.43 1.57 1.70 1.78 1.80 1.81 1.83 1.87 1.90 1.93 1.98 2.00 1.97 2.04 2.03 2.01 2.01 2.03 2.03 1.96 1.86 1.85 1.83 1.82 1.80 1.79 1.76 1.64 1.57 1.45 1.32 1.25 1.21 1.16 1.10 0.98 0.83
0.19 0.14 0.15 0.19 0.19 0.21 0.21 0.20 0.17 0.19 0.22 0.22 0.20 0.17 0.18 0.14 0.13 0.12 0.13 0.15 0.15 0.13 0.23 0.29 0.36 0.30 0.47 0.52 0.60 0.58 0.65 0.70 0.73 0.77 0.79 0.89 0.96 0.94 0.94 0.94 1.03 1.12 1.20 1.22 1.19 1.19 1.27 1.42 1.54 1.62 1.69 1.73 1.74 1.78 1.88 1.90 1.94 1.93 1.95 2.00 2.03 2.05 2.03 2.01 2.01 2.02 2.00 1.99 1.97 1.91 1.89 1.88 1.84 1.81 1.79 1.70 1.65 1.55 1.42 1.32 1.26 1.16 1.06 0.94 0.91 0.85
0.19 0.20 0.14 0.18 0.22 0.21 0.18 0.19 0.18 0.19 0.19 0.19 0.17 0.15 0.15 0.13 0.17 0.15 0.16 0.13 0.14 0.14 0.14 0.20 0.22 0.31 0.47 0.65 0.60 0.59 0.68 0.74 0.84 0.86 0.92 0.96 0.98 0.97 1.03 1.10 1.17 1.21 1.24 1.21 1.22 1.32 1.50 1.58 1.64 1.72 1.74 1.73 1.75 1.79 1.87 1.93 1.86 1.86 1.93 1.97 2.00 1.98 1.96 2.00 2.02 2.02 2.03 1.98 1.95 1.89 1.85 1.82 1.79 1.78 1.74 1.65 1.58 1.52 1.41 1.30 1.23 1.13 1.04 0.94 0.89 0.84
0.19 0.19 0.16 0.18 0.18 0.18 0.19 0.22 0.22 0.21 0.20 0.18 0.16 0.14 0.14 0.14 0.13 0.11 0.11 0.15 0.12 0.11 0.14 0.16 0.18 0.34 0.56 0.76 0.79 0.75 0.85 0.89 0.92 0.93 0.93 0.95 0.96 1.00 1.10 1.22 1.27 1.25 1.25 1.29 1.34 1.43 1.51 1.59 1.66 1.74 1.84 1.88 1.87 1.84 1.85 1.86 1.85 1.87 1.87 1.96 2.10 2.04 2.03 2.05 2.01 2.08 1.94 1.96 1.93 1.90 1.82 1.77 1.76 1.77 1.73 1.62 1.57 1.44 1.37 1.27 1.23 1.13 1.08 0.95 0.88 0.80
0.24 0.23 0.20 0.17 0.19 0.19 0.21 0.23 0.24 0.24 0.22 0.21 0.18 0.17 0.17 0.15 0.15 0.13 0.11 0.13 0.13 0.14 0.24 0.25 0.21 0.37 0.66 0.83 0.85 0.83 0.83 0.88 0.95 0.95 0.89 0.92 0.93 0.99 1.12 1.27 1.34 1.36 1.33 1.33 1.34 1.36 1.44 1.47 1.46 1.48 1.69 1.77 1.79 1.81 1.82 1.85 1.84 1.82 1.87 1.90 1.96 1.93 2.10 2.03 2.16 1.93 1.98 1.78 1.76 1.71 1.70 1.71 1.75 1.76 1.71 1.58 1.50 1.39 1.33 1.28 1.20 1.13 1.04 0.95 0.85 0.77
0.32 0.23 0.19 0.18 0.20 0.22 0.23 0.24 0.23 0.25 0.21 0.19 0.19 0.19 0.18 0.16 0.16 0.15 0.15 0.15 0.13 0.18 0.18 0.27 0.21 0.40 0.65 0.78 0.84 0.83 0.88 0.90 0.91 0.95 0.90 0.90 0.96 1.00 1.09 1.23 1.30 1.29 1.32 1.37 1.41 1.42 1.44 1.39 1.33 1.40 1.48 1.59 1.67 1.71 1.70 1.77 1.69 1.76 1.89 1.91 1.93 1.93 1.98 1.82 1.83 1.77 1.77 1.71 1.69 1.72 1.69 1.69 1.74 1.73 1.58 1.50 1.43 1.36 1.33 1.27 1.15 1.11 1.01 0.91 0.84 0.76
0.21 0.25 0.20 0.18 0.16 0.17 0.18 0.21 0.22 0.25 0.25 0.23 0.22 0.21 0.18 0.17 0.18 0.18 0.16 0.18 0.13 0.22 0.25 0.21 0.19 0.36 0.63 0.88 0.89 0.86 0.85 0.83 0.86 0.93 0.99 0.92 0.96 1.02 1.08 1.19 1.30 1.34 1.36 1.37 1.37 1.37 1.37 1.33 1.39 1.44 1.46 1.54 1.59 1.67 1.71 1.79 1.72 1.79 1.85 1.82 1.85 1.99 1.85 1.85 1.81 1.84 1.76 1.81 1.74 1.73 1.69 1.68 1.68 1.59 1.50 1.44 1.37 1.33 1.30 1.21 1.13 1.10 1.00 0.86 0.78 0.71
0.26 0.26 0.23 0.18 0.15 0.13 0.13 0.15 0.19 0.22 0.23 0.25 0.26 0.27 0.25 0.19 0.20 0.20 0.18 0.17 0.15 0.29 0.32 0.30 0.33 0.53 0.71 0.81 0.81 0.79 0.80 0.78 0.88 0.96 1.02 1.05 1.02 1.04 1.10 1.18 1.29 1.34 1.34 1.36 1.37 1.39 1.37 1.34 1.40 1.46 1.51 1.47 1.51 1.55 1.61 1.68 1.76 1.79 1.73 1.78 1.83 1.89 1.83 1.84 1.83 1.79 1.76 1.67 1.70 1.66 1.65 1.65 1.59 1.52 1.41 1.36 1.33 1.29 1.23 1.16 1.10 1.04 0.93 0.80 0.71 0.65
0.27 0.27 0.24 0.22 0.20 0.17 0.19 0.21 0.26 0.29 0.27 0.25 0.26 0.26 0.29 0.30 0.28 0.25 0.21 0.20 0.20 0.36 0.36 0.45 0.44 0.50 0.56 0.64 0.71 0.75 0.77 0.75 0.80 0.91 0.95 1.00 1.06 1.11 1.12 1.12 1.19 1.29 1.28 1.24 1.26 1.34 1.41 1.36 1.37 1.42 1.39 1.42 1.41 1.51 1.59 1.68 1.75 1.67 1.71 1.71 1.77 1.74 1.78 1.75 1.73 1.67 1.66 1.65 1.65 1.66 1.62 1.58 1.48 1.41 1.35 1.32 1.28 1.24 1.17 1.10 1.05 0.95 0.84 0.77 0.67 0.59
0.29 0.24 0.25 0.24 0.23 0.22 0.23 0.23 0.26 0.27 0.26 0.27 0.28 0.31 0.34 0.31 0.28 0.25 0.21 0.25 0.38 0.35 0.35 0.48 0.54 0.45 0.50 0.61 0.67 0.71 0.78 0.80 0.87 0.92 0.99 1.04 1.04 1.07 1.06 1.03 1.13 1.20 1.24 1.27 1.28 1.31 1.35 1.39 1.39 1.33 1.33 1.39 1.39 1.49 1.61 1.67 1.63 1.61 1.64 1.71 1.78 1.73 1.71 1.71 1.69 1.65 1.65 1.65 1.63 1.66 1.59 1.48 1.41 1.35 1.31 1.28 1.23 1.15 1.09 1.04 0.98 0.88 0.80 0.72 0.61 0.57
0.31 0.25 0.26 0.23 0.23 0.24 0.24 0.24 0.27 0.27 0.28 0.28 0.31 0.32 0.33 0.33 0.34 0.29 0.35 0.42 0.43 0.35 0.34 0.46 0.52 0.50 0.57 0.67 0.72 0.77 0.79 0.82 0.91 1.00 1.05 1.06 1.07 1.05 0.99 0.96 0.99 1.09 1.20 1.26 1.30 1.35 1.40 1.35 1.29 1.30 1.32 1.41 1.48 1.46 1.51 1.53 1.57 1.58 1.62 1.64 1.66 1.68 1.68 1.70 1.64 1.61 1.64 1.64 1.60 1.55 1.46 1.40 1.34 1.30 1.28 1.22 1.14 1.05 1.01 0.98 0.94 0.86 0.77 0.65 0.61 0.67
0.31 0.27 0.25 0.24 0.23 0.23 0.23 0.25 0.28 0.28 0.28 0.29 0.32 0.31 0.36 0.37 0.41 0.40 0.44 0.49 0.45 0.41 0.47 0.53 0.55 0.56 0.66 0.72 0.77 0.81 0.93 0.97 1.02 1.06 1.05 1.00 0.97 0.97 0.93 0.95 0.99 1.02 1.13 1.22 1.29 1.38 1.42 1.37 1.32 1.29 1.35 1.40 1.44 1.44 1.45 1.48 1.49 1.54 1.54 1.55 1.59 1.63 1.64 1.63 1.59 1.59 1.63 1.58 1.55 1.51 1.41 1.34 1.30 1.27 1.20 1.11 1.00 0.98 0.94 0.93 0.89 0.80 0.70 0.60 0.62 0.68
0.31 0.29 0.30 0.26 0.23 0.22 0.22 0.25 0.28 0.29 0.28 0.29 0.31 0.42 0.41 0.42 0.45 0.49 0.49 0.50 0.52 0.52 0.55 0.55 0.54 0.57 0.79 0.89 0.87 0.93 0.94 0.96 0.96 0.92 0.92 0.91 0.92 0.90 0.90 0.93 0.97 1.02 1.12 1.27 1.35 1.41 1.45 1.44 1.38 1.35 1.32 1.35 1.37 1.40 1.44 1.44 1.45 1.50 1.50 1.52 1.56 1.57 1.57 1.57 1.57 1.59 1.58 1.53 1.50 1.44 1.37 1.29 1.24 1.16 1.07 0.98 0.97 0.94 0.92 0.89 0.82 0.73 0.65 0.62 0.64 0.68
0.34 0.31 0.31 0.29 0.22 0.21 0.21 0.23 0.28 0.30 0.29 0.29 0.29 0.44 0.42 0.40 0.39 0.44 0.43 0.50 0.47 0.47 0.54 0.53 0.50 0.56 0.77 0.90 0.89 0.87 0.88 0.86 0.86 0.88 0.86 0.85 0.86 0.86 0.85 0.89 0.93 1.03 1.13 1.24 1.32 1.39 1.44 1.44 1.41 1.35 1.32 1.33 1.38 1.40 1.44 1.42 1.45 1.45 1.44 1.50 1.52 1.51 1.53 1.54 1.54 1.53 1.49 1.46 1.42 1.34 1.28 1.21 1.14 1.04 0.98 0.97 0.95 0.93 0.90 0.85 0.76 0.65 0.60 0.63 0.67 0.70
0.34 0.32 0.28 0.27 0.23 0.21 0.22 0.25 0.29 0.30 0.28 0.27 0.28 0.41 0.48 0.45 0.46 0.50 0.52 0.52 0.49 0.50 0.46 0.43 0.45 0.59 0.73 0.83 0.79 0.83 0.88 0.89 0.90 0.89 0.81 0.84 0.88 0.88 0.88 0.89 0.96 1.03 1.14 1.21 1.29 1.35 1.41 1.46 1.45 1.42 1.36 1.38 1.40 1.43 1.43 1.46 1.43 1.40 1.44 1.45 1.48 1.48 1.46 1.44 1.43 1.42 1.40 1.37 1.32 1.25 1.20 1.13 1.02 0.97 0.95 0.95 0.94 0.90 0.85 0.79 0.72 0.63 0.58 0.62 0.69 0.71
0.35 0.33 0.30 0.30 0.23 0.21 0.23 0.28 0.31 0.27 0.24 0.29 0.39 0.47 0.48 0.43 0.44 0.43 0.45 0.49 0.54 0.56 0.51 0.55 0.57 0.70 0.77 0.81 0.79 0.79 0.84 0.84 0.89 0.92 0.97 0.90 0.88 0.90 0.94 1.00 1.02 1.09 1.18 1.26 1.34 1.37 1.44 1.50 1.50 1.47 1.44 1.42 1.48 1.48 1.47 1.47 1.42 1.42 1.44 1.43 1.42 1.40 1.39 1.38 1.37 1.34 1.30 1.27 1.22 1.18 1.11 1.03 0.97 0.94 0.93 0.92 0.90 0.85 0.80 0.74 0.69 0.64 0.61 0.60 0.66 0.66
0.33 0.33 0.31 0.32 0.25 0.22 0.24 0.26 0.25 0.23 0.29 0.42 0.47 0.51 0.53 0.52 0.53 0.51 0.53 0.57 0.58 0.62 0.61 0.62 0.68 0.74 0.79 0.84 0.88 0.88 0.86 0.90 0.95 0.93 0.95 0.98 0.98 0.94 0.97 1.03 1.08 1.12 1.18 1.26 1.32 1.39 1.47 1.52 1.51 1.49 1.45 1.44 1.47 1.48 1.45 1.43 1.42 1.40 1.37 1.35 1.32 1.34 1.32 1.32 1.28 1.26 1.23 1.16 1.12 1.08 1.04 0.99 0.94 0.90 0.89 0.88 0.84 0.80 0.74 0.71 0.67 0.63 0.61 0.58 0.60 0.62
0.33 0.32 0.32 0.30 0.29 0.26 0.25 0.26 0.21 0.27 0.42 0.48 0.51 0.57 0.60 0.59 0.59 0.57 0.56 0.63 0.67 0.65 0.67 0.68 0.76 0.84 0.87 0.87 0.89 0.89 0.86 0.89 0.92 0.95 0.99 1.03 1.01 0.99 0.99 1.03 1.09 1.15 1.17 1.27 1.35 1.43 1.51 1.54 1.51 1.47 1.43 1.48 1.48 1.45 1.44 1.40 1.39 1.32 1.27 1.30 1.29 1.29 1.28 1.24 1.21 1.19 1.14 1.08 1.08 1.07 1.02 0.95 0.89 0.87 0.85 0.83 0.80 0.76 0.71 0.69 0.64 0.60 0.61 0.59 0.61 0.66
0.33 0.34 0.33 0.29 0.31 0.23 0.26 0.27 0.27 0.36 0.36 0.42 0.44 0.48 0.50 0.46 0.50 0.47 0.45 0.58 0.74 0.77 0.78 0.78 0.81 0.85 0.87 0.89 0.87 0.87 0.89 0.87 0.80 0.85 1.03 1.01 1.02 1.06 1.08 1.10 1.14 1.17 1.22 1.31 1.42 1.49 1.59 1.60 1.55 1.49 1.48 1.45 1.45 1.42 1.41 1.39 1.33 1.25 1.23 1.23 1.25 1.24 1.20 1.18 1.15 1.13 1.09 1.06 1.05 1.01 0.97 0.95 0.93 0.90 0.85 0.80 0.77 0.72 0.69 0.66 0.63 0.63 0.64 0.60 0.60 0.61
0.33 0.31 0.35 0.28 0.29 0.28 0.26 0.27 0.27 0.28 0.26 0.34 0.43 0.50 0.53 0.54 0.57 0.58 0.54 0.61 0.81 0.85 0.86 0.79 0.76 0.80 0.81 0.82 0.81 0.83 0.86 0.70 0.60 0.72 0.93 1.04 1.10 1.10 1.16 1.18 1.23 1.27 1.32 1.38 1.48 1.54 1.57 1.58 1.55 1.52 1.46 1.42 1.41 1.42 1.43 1.36 1.26 1.21 1.18 1.19 1.20 1.17 1.14 1.14 1.11 1.11 1.11 1.07 1.02 0.96 0.96 0.96 0.95 0.91 0.85 0.80 0.75 0.69 0.65 0.66 0.64 0.61 0.61 0.59 0.60 0.63
0.32 0.34 0.35 0.31 0.28 0.26 0.25 0.25 0.26 0.23 0.27 0.37 0.44 0.49 0.56 0.59 0.59 0.59 0.50 0.51 0.80 0.89 0.88 0.81 0.77 0.79 0.77 0.76 0.78 0.82 0.71 0.53 0.53 0.66 0.93 1.03 1.08 1.13 1.09 1.15 1.22 1.29 1.36 1.42 1.45 1.44 1.53 1.52 1.51 1.49 1.44 1.41 1.37 1.42 1.41 1.31 1.23 1.18 1.15 1.16 1.16 1.15 1.12 1.10 1.09 1.11 1.10 1.08 1.03 0.97 0.96 0.96 0.96 0.93 0.87 0.82 0.77 0.67 0.62 0.61 0.61 0.62 0.60 0.63 0.66 0.69
0.28 0.30 0.30 0.27 0.25 0.24 0.24 0.23 0.24 0.28 0.29 0.42 0.50 0.52 0.60 0.61 0.57 0.51 0.41 0.51 0.74 0.88 0.89 0.82 0.76 0.78 0.81 0.82 0.82 0.77 0.66 0.52 0.53 0.69 0.94 1.04 1.08 1.13 1.12 1.13 1.19 1.27 1.34 1.44 1.48 1.50 1.52 1.54 1.49 1.42 1.37 1.34 1.37 1.42 1.37 1.27 1.20 1.15 1.13 1.14 1.14 1.10 1.09 1.10 1.12 1.15 1.14 1.09 1.04 0.98 0.96 0.97 0.98 0.95 0.87 0.83 0.81 0.69 0.60 0.58 0.63 0.61 0.60 0.65 0.66 0.68
0.22 0.23 0.23 0.21 0.21 0.21 0.21 0.23 0.27 0.29 0.36 0.43 0.47 0.53 0.58 0.62 0.55 0.42 0.39 0.55 0.79 0.86 0.88 0.85 0.81 0.83 0.87 0.84 0.83 0.69 0.75 0.75 0.77 0.89 1.01 1.06 1.07 1.11 1.19 1.26 1.30 1.32 1.33 1.40 1.44 1.51 1.49 1.49 1.44 1.38 1.35 1.37 1.40 1.39 1.33 1.24 1.16 1.12 1.12 1.14 1.09 1.06 1.10 1.14 1.16 1.16 1.11 1.06 1.02 0.99 0.99 1.03 1.00 0.93 0.90 0.86 0.82 0.71 0.63 0.57 0.60 0.61 0.61 0.62 0.65 0.65
0.23 0.24 0.26 0.26 0.24 0.21 0.21 0.20 0.23 0.29 0.42 0.47 0.52 0.56 0.58 0.49 0.42 0.42 0.64 0.76 0.80 0.84 0.90 0.88 0.84 0.89 0.88 0.85 0.85 0.82 0.83 0.89 0.92 0.97 0.99 1.02 1.04 1.10 1.17 1.27 1.34 1.38 1.44 1.46 1.49 1.47 1.46 1.45 1.42 1.38 1.36 1.38 1.39 1.35 1.29 1.22 1.13 1.11 1.12 1.10 1.06 1.09 1.15 1.17 1.16 1.14 1.08 1.02 1.03 1.03 1.04 1.03 1.01 0.98 0.93 0.91 0.85 0.75 0.68 0.63 0.64 0.64 0.62 0.61 0.62 0.62
0.31 0.29 0.28 0.26 0.26 0.26 0.25 0.20 0.20 0.22 0.41 0.49 0.52 0.51 0.56 0.42 0.54 0.63 0.72 0.82 0.83 0.87 0.88 0.88 0.88 0.90 0.92 0.88 0.95 0.92 0.91 0.92 0.92 0.92 0.96 1.03 1.06 1.11 1.19 1.26 1.31 1.33 1.35 1.39 1.43 1.49 1.47 1.40 1.36 1.34 1.34 1.36 1.35 1.32 1.27 1.20 1.12 1.09 1.11 1.07 1.09 1.15 1.17 1.17 1.15 1.11 1.06 1.03 1.02 1.04 1.05 1.04 1.01 1.00 0.99 0.97 0.93 0.86 0.77 0.74 0.67 0.62 0.60 0.57 0.57 0.59
0.42 0.34 0.35 0.33 0.32 0.25 0.25 0.22 0.21 0.26 0.40 0.53 0.51 0.45 0.56 0.59 0.70 0.77 0.75 0.79 0.90 0.91 0.86 0.85 0.92 0.94 0.95 0.92 0.93 0.93 0.92 0.92 0.94 0.96 0.97 1.03 1.11 1.20 1.28 1.32 1.36 1.37 1.40 1.46 1.49 1.49 1.47 1.39 1.36 1.33 1.35 1.34 1.31 1.29 1.26 1.20 1.12 1.09 1.08 1.07 1.17 1.18 1.19 1.16 1.14 1.11 1.06 1.04 1.02 1.04 1.05 1.06 1.05 1.04 1.02 1.00 0.99 0.92 0.86 0.81 0.75 0.67 0.61 0.59 0.56 0.56
0.55 0.44 0.48 0.41 0.45 0.37 0.33 0.32 0.43 0.52 0.53 0.57 0.56 0.57 0.63 0.71 0.79 0.82 0.85 0.81 0.81 0.83 0.90 0.86 0.88 0.94 0.95 0.95 0.94 0.92 0.89 0.93 0.92 0.97 0.95 1.03 1.11 1.19 1.25 1.31 1.32 1.33 1.38 1.41 1.46 1.51 1.47 1.39 1.33 1.32 1.32 1.31 1.28 1.28 1.24 1.21 1.13 1.10 1.06 1.12 1.20 1.19 1.17 1.14 1.12 1.10 1.05 1.05 1.05 1.06 1.08 1.08 1.06 1.04 1.03 1.01 0.96 0.90 0.84 0.80 0.77 0.68 0.63 0.59 0.57 0.56
0.66 0.73 0.76 0.58 0.51 0.62 0.59 0.61 0.63 0.62 0.61 0.62 0.65 0.67 0.66 0.71 0.79 0.82 0.82 0.80 0.84 0.85 0.88 0.87 0.92 0.94 0.97 0.98 0.91 0.94 0.92 0.94 0.92 0.95 1.02 1.11 1.17 1.25 1.31 1.35 1.38 1.40 1.43 1.45 1.47 1.48 1.45 1.41 1.35 1.31 1.24 1.25 1.26 1.25 1.25 1.21 1.17 1.09 1.10 1.18 1.21 1.21 1.18 1.12 1.11 1.09 1.06 1.07 1.07 1.08 1.08 1.03 1.01 1.02 1.01 0.99 0.94 0.91 0.85 0.78 0.73 0.66 0.62 0.57 0.56 0.56
0.67 0.66 0.64 0.58 0.64 0.56 0.51 0.67 0.66 0.68 0.70 0.71 0.72 0.76 0.77 0.76 0.79 0.80 0.80 0.81 0.85 0.90 0.93 0.96 0.95 0.95 0.96 0.98 0.93 0.91 0.94 0.97 0.93 0.96 1.05 1.13 1.19 1.25 1.28 1.31 1.36 1.38 1.39 1.41 1.44 1.45 1.39 1.35 1.30 1.25 1.21 1.17 1.23 1.24 1.22 1.19 1.17 1.17 1.17 1.18 1.23 1.22 1.18 1.12 1.12 1.10 1.08 1.07 1.09 1.11 1.08 1.01 1.02 0.96 0.94 0.92 0.93 0.89 0.82 0.76 0.71 0.66 0.63 0.60 0.56 0.54
0.59 0.69 0.63 0.61 0.63 0.58 0.58 0.69 0.74 0.78 0.78 0.79 0.75 0.72 0.74 0.77 0.80 0.84 0.85 0.86 0.91 0.98 0.98 0.99 1.00 0.97 1.00 0.94 0.95 0.93 0.95 0.97 0.93 0.95 1.03 1.12 1.19 1.26 1.27 1.33 1.35 1.39 1.45 1.49 1.50 1.45 1.37 1.33 1.27 1.23 1.20 1.17 1.20 1.19 1.16 1.16 1.16 1.18 1.18 1.20 1.24 1.22 1.18 1.13 1.13 1.12 1.09 1.08 1.06 1.04 1.06 1.04 1.06 1.04 0.96 0.98 0.93 0.81 0.74 0.69 0.67 0.63 0.61 0.60 0.57 0.54
0.72 0.71 0.59 0.65 0.65 0.70 0.74 0.79 0.81 0.83 0.84 0.83 0.82 0.81 0.81 0.81 0.84 0.87 0.90 0.91 0.94 0.94 0.98 1.02 1.03 1.00 1.00 0.97 1.00 0.97 0.94 0.94 0.94 0.98 1.04 1.16 1.25 1.27 1.28 1.34 1.37 1.39 1.46 1.48 1.49 1.44 1.34 1.33 1.29 1.25 1.20 1.17 1.17 1.12 1.11 1.13 1.17 1.19 1.18 1.20 1.23 1.23 1.18 1.14 1.13 1.14 1.13 1.10 1.09 1.12 1.15 1.16 1.15 1.04 0.95 0.95 0.89 0.82 0.76 0.68 0.65 0.64 0.63 0.67 0.68 0.64
0.75 0.66 0.72 0.65 0.61 0.60 0.60 0.69 0.74 0.65 0.67 0.78 0.83 0.86 0.88 0.91 0.88 0.87 0.90 0.90 0.93 0.93 0.96 0.95 0.98 1.02 1.01 1.02 0.99 0.98 0.92 0.94 0.98 1.04 1.09 1.19 1.23 1.28 1.33 1.36 1.41 1.42 1.47 1.53 1.51 1.46 1.39 1.35 1.30 1.24 1.19 1.13 1.11 1.08 1.09 1.14 1.17 1.20 1.21 1.22 1.24 1.23 1.18 1.16 1.14 1.13 1.12 1.12 1.17 1.20 1.19 1.13 1.06 1.00 0.97 0.94 0.87 0.81 0.77 0.76 0.73 0.72 0.67 0.68 0.74 0.74
0.71 0.72 0.74 0.68 0.59 0.60 0.73 0.76 0.79 0.77 0.79 0.84 0.88 0.93 0.94 0.93 0.90 0.87 0.88 0.91 0.94 0.95 0.96 0.93 0.91 0.95 0.94 0.97 1.01 0.96 0.94 0.96 1.01 1.10 1.16 1.21 1.25 1.33 1.37 1.38 1.39 1.42 1.47 1.53 1.49 1.43 1.37 1.32 1.31 1.24 1.14 1.09 1.07 1.06 1.09 1.13 1.18 1.21 1.21 1.23 1.26 1.24 1.20 1.20 1.15 1.12 1.13 1.20 1.18 1.12 1.10 1.07 1.00 1.06 1.05 0.96 0.90 0.81 0.72 0.68 0.73 0.77 0.76 0.74 0.73 0.72
Wind_Speed
8 8 9 11 11 11 11 10 10 9 10 10 9 8 8 8 9 10 9 8 7 8 10 9 10 10 10 10 9 7 7 6 6 5 4 4 3 3 5 7 8 9 9 8 8 9 9 9 8 8 9 9 9 8 8 8 7 7 6 6 6 6 5 5 5 4 3 3 2 2 2 2 2 2 3 3 3 3 4 4 4 4 5 6 6 6
9 10 11 12 12 12 11 10 9 9 10 10 9 8 8 8 11 11 9 10 8 9 11 10 11 12 10 11 11 9 7 8 7 6 5 5 4 3 4 7 8 9 9 8 8 9 10 10 9 9 9 9 9 9 9 8 8 7 7 7 6 6 6 6 5 5 4 3 3 3 3 2 2 3 3 3 3 3 4 4 4 4 5 6 6 5
9 11 12 13 12 11 11 10 10 11 11 11 9 8 8 8 9 9 8 9 7 9 11 11 12 12 10 11 12 11 10 9 9 7 7 6 4 4 4 6 7 8 8 9 9 10 10 10 10 10 10 10 10 9 9 9 8 7 7 7 7 6 6 6 6 5 5 4 3 3 3 3 3 3 3 2 2 3 3 4 4 4 5 6 6 5
10 11 12 13 13 13 14 13 12 12 10 10 10 9 9 10 9 8 9 8 7 9 10 10 12 13 12 12 13 13 13 11 10 10 8 8 6 6 6 6 7 8 8 9 9 10 11 11 11 11 11 10 10 9 9 9 8 8 7 7 7 7 7 7 6 6 5 4 3 3 3 3 3 2 1 1 2 3 3 4 5 5 5 6 5 4
11 12 12 11 12 13 14 14 12 11 10 10 9 9 10 11 9 9 10 9 8 9 9 8 11 14 12 12 12 13 14 12 11 10 9 9 9 8 6 5 6 8 9 9 9 10 11 12 12 12 11 11 10 10 10 9 9 8 8 8 8 7 7 7 7 6 5 5 3 2 2 2 2 2 1 1 2 3 3 4 5 5 5 5 5 4
12 13 13 12 12 12 12 13 12 12 11 10 9 9 10 10 10 11 10 9 9 9 9 8 11 14 12 11 12 12 13 13 11 10 10 10 9 7 5 5 6 7 9 10 10 11 12 12 12 12 12 12 11 11 10 10 9 9 9 9 8 8 8 8 7 7 6 5 4 3 3 3 3 2 2 2 2 3 3 4 5 5 5 5 4 4
9 11 11 11 12 13 12 12 12 11 10 10 10 11 10 9 9 11 10 9 9 10 11 10 11 14 13 13 14 13 13 13 11 10 10 10 9 8 7 7 8 8 9 10 10 11 11 12 12 12 12 13 12 12 11 11 10 10 10 10 9 9 9 9 8 8 7 6 5 5 4 4 4 3 3 2 2 3 3 4 5 5 4 4 4 4
9 9 9 10 11 12 12 11 10 10 9 11 11 10 10 9 9 10 10 9 10 11 12 10 10 11 13 13 12 11 11 12 11 10 10 10 10 10 10 10 10 10 9 9 10 10 11 11 12 12 13 13 13 13 12 11 11 11 11 11 11 10 10 10 10 9 8 7 7 6 5 5 4 4 3 3 2 3 4 4 4 4 4 3 4 4
9 10 10 11 11 11 11 11 10 9 9 11 11 8 9 9 8 9 10 10 10 11 12 10 9 9 11 12 9 7 10 12 12 12 11 10 11 11 12 11 11 10 10 10 10 10 10 11 11 12 13 14 14 14 13 13 12 12 12 12 12 12 11 11 11 10 9 8 8 7 6 5 4 4 4 3 3 3 3 4 4 4 4 3 4 4
10 12 12 11 11 11 11 11 10 8 9 11 9 8 8 9 9 9 9 10 10 8 10 11 8 9 11 12 8 7 11 13 12 12 11 10 10 12 12 12 11 10 10 10 10 10 10 10 11 12 12 14 15 15 15 14 13 13 13 13 13 13 13 13 13 12 10 9 9 8 7 5 4 4 4 4 4 4 4 4 4 4 4 4 4 5
12 14 13 12 11 11 11 11 10 8 9 9 8 8 9 10 10 10 9 9 8 7 10 12 9 9 11 11 9 7 9 12 11 10 9 9 10 11 12 13 12 10 10 10 10 10 10 10 11 12 13 14 15 15 15 15 15 14 14 14 15 14 14 14 14 13 12 10 10 9 8 7 6 5 5 4 4 4 4 4 4 4 3 3 4 5
13 13 13 12 12 11 11 12 10 9 9 9 8 9 10 11 10 9 9 8 7 8 11 13 11 9 10 10 10 10 9 8 9 9 8 9 10 12 12 13 12 11 10 9 9 10 10 10 11 12 13 14 15 15 16 16 16 16 16 16 16 16 16 16 16 15 13 12 10 10 9 8 7 7 6 5 5 5 5 5 4 3 3 3 4 5
13 13 12 12 13 12 11 12 11 10 9 9 9 8 8 9 8 8 8 7 7 10 12 12 10 8 8 9 9 9 8 6 7 8 8 9 11 12 12 12 12 11 10 9 9 10 11 11 12 12 13 13 14 15 16 16 16 17 17 18 18 18 17 18 17 16 15 13 11 10 10 9 8 7 7 6 6 6 6 5 4 4 3 3 4 5
12 12 11 10 10 10 11 12 11 10 9 8 8 7 7 7 6 8 9 8 8 10 11 10 8 7 7 7 7 6 6 6 7 8 9 10 11 11 12 12 11 11 11 10 10 10 11 12 13 13 13 13 13 14 16 16 17 18 18 19 19 19 19 19 19 17 15 14 13 11 11 11 10 8 7 7 7 6 6 5 5 4 4 3 4 5
10 11 9 8 8 9 10 12 11 10 9 9 8 7 8 8 7 8 8 8 9 10 11 10 7 5 5 6 6 7 8 6 6 8 9 11 11 11 12 12 11 12 11 11 11 12 13 13 14 14 13 13 13 14 15 17 19 20 19 20 20 20 19 19 18 18 17 16 14 14 13 12 11 9 8 7 7 6 6 5 5 5 4 4 5 5
10 12 11 10 10 9 10 10 9 9 10 10 8 7 10 10 10 10 10 10 11 10 10 8 5 4 5 5 7 7 8 7 6 7 9 11 12 11 12 12 12 12 12 12 13 13 14 14 13 13 13 13 13 13 14 16 19 21 21 22 23 23 23 21 20 19 18 17 16 15 14 13 12 10 9 8 7 6 6 5 5 5 5 5 5 5
10 11 10 10 10 10 11 11 9 9 9 9 7 8 11 9 8 10 11 12 10 7 7 5 3 4 5 5 7 8 8 8 8 8 9 10 11 11 12 13 13 13 12 13 14 14 14 13 13 13 13 13 14 14 15 15 17 19 21 23 24 25 26 25 24 23 21 18 17 16 15 13 13 11 10 10 8 6 6 5 5 5 5 5 5 6
11 12 11 9 10 11 11 9 9 9 7 6 8 10 9 7 6 7 8 9 7 4 5 5 4 6 5 5 7 8 8 9 9 9 10 11 11 12 13 13 13 13 13 13 13 14 13 13 13 14 14 14 14 15 16 16 17 18 19 20 22 24 25 26 26 25 23 20 17 16 15 14 13 12 11 10 8 7 6 6 5 5 5 6 6 6
11 12 12 9 9 10 7 6 8 9 8 7 9 9 8 7 8 8 7 7 6 4 5 6 6 7 6 6 7 8 8 9 10 11 11 11 12 12 13 14 14 13 13 12 13 13 13 14 14 14 13 13 14 15 16 17 19 20 19 19 20 21 23 24 24 23 22 21 18 16 15 14 13 12 11 9 8 7 7 6 5 5 6 6 6 5
10 10 11 9 8 7 5 5 8 11 11 9 9 9 8 8 8 8 7 6 5 4 5 5 7 8 8 7 7 7 8 9 10 10 11 11 12 13 14 15 15 14 13 13 13 14 14 13 13 13 12 12 13 15 16 16 18 20 19 18 19 20 20 21 22 21 20 19 17 15 14 13 12 11 10 9 8 8 7 6 6 5 5 5 5 4
8 9 10 10 9 6 7 8 8 10 11 10 9 9 7 7 8 8 8 8 7 6 5 6 8 9 9 8 7 8 8 9 9 9 10 12 13 14 15 15 14 13 13 14 14 14 13 13 13 13 13 13 13 14 15 15 16 18 18 18 19 20 20 22 23 21 18 16 15 13 12 11 12 11 10 9 8 7 6 6 6 5 5 4 4 4
9 9 10 11 10 9 10 11 9 8 10 9 8 7 7 7 7 7 8 9 8 8 7 7 8 9 9 7 7 8 9 8 8 8 10 13 13 15 15 14 14 13 13 14 15 14 14 14 15 16 16 16 15 14 13 12 12 14 15 16 17 17 19 23 26 23 17 14 12 11 11 11 12 11 9 8 8 7 6 6 5 5 5 5 5 5
9 8 8 10 11 12 12 12 9 8 9 8 7 7 6 6 6 7 9 9 7 7 7 6 7 8 9 7 6 6 7 7 8 8 10 12 14 14 14 14 14 14 14 15 15 15 15 15 16 17 17 17 14 12 11 8 7 9 11 12 12 13 15 14 18 18 11 10 9 9 10 10 12 11 9 8 8 6 6 5 5 5 5 5 5 5
6 5 6 8 10 11 11 10 8 6 5 5 6 7 6 6 7 7 8 8 6 6 6 6 7 8 9 8 6 5 6 7 8 9 10 12 14 14 14 13 14 14 14 15 15 16 16 16 18 17 15 14 12 9 7 5 5 7 8 9 9 9 9 2 11 9 4 6 6 6 8 8 11 10 9 8 7 6 5 5 5 5 5 5 5 5
6 6 5 5 7 8 7 6 5 5 4 5 7 7 6 7 8 7 7 6 5 6 7 6 7 9 9 8 6 6 7 8 9 10 11 12 14 15 14 14 14 14 14 15 15 16 16 16 15 12 10 9 8 7 5 4 5 6 6 7 8 5 2 2 4 4 4 5 4 5 6 8 9 9 8 7 6 5 5 4 5 5 5 5 5 4
7 7 6 4 5 7 7 6 5 6 5 5 7 8 7 7 7 8 9 6 5 6 6 6 7 8 8 7 7 8 8 8 10 11 12 13 14 15 15 14 14 14 14 14 15 15 14 12 10 7 5 5 5 6 6 5 5 6 5 6 6 3 2 1 2 3 4 4 5 6 7 7 8 7 7 7 5 5 5 4 5 5 5 4 4 4
7 9 8 6 7 8 9 9 7 6 5 7 10 9 8 7 6 6 8 8 7 5 4 6 6 6 7 9 9 10 9 9 10 11 12 14 15 15 14 13 12 13 13 13 13 12 10 8 7 6 5 5 5 5 5 5 5 5 5 5 3 2 2 2 2 2 3 4 6 7 6 6 7 6 6 5 5 5 4 4 4 5 4 4 4 4
5 9 10 9 9 10 10 10 9 7 6 9 10 8 7 7 6 4 5 8 7 4 4 6 5 4 7 9 9 10 10 10 11 12 13 14 14 13 13 12 11 11 11 11 10 9 7 7 6 5 5 5 5 4 5 5 5 5 4 3 2 2 2 2 2 2 4 5 6 6 5 5 5 5 5 4 4 4 4 4 4 4 4 4 4 3
4 7 10 10 9 10 11 11 10 8 7 8 8 8 8 6 3 2 4 7 6 4 5 6 4 5 8 9 9 10 10 10 11 12 12 12 12 12 11 12 11 10 9 9 9 8 7 7 6 5 5 5 5 4 4 5 5 4 3 2 2 2 2 2 3 4 4 5 5 5 4 4 4 4 4 4 4 3 3 4 4 3 3 3 3 2
3 5 8 9 9 9 10 11 9 7 8 8 8 8 6 3 2 2 3 5 4 3 4 4 4 6 8 9 9 10 9 9 10 11 11 12 12 11 11 11 11 9 9 9 8 8 7 7 6 5 5 5 5 5 4 4 4 4 3 2 1 2 2 3 4 4 5 5 5 4 4 4 4 4 4 4 3 3 3 3 3 3 3 3 2 2
3 5 6 6 8 9 9 10 9 7 8 8 8 7 3 3 3 3 4 3 2 2 3 4 5 7 9 8 8 9 9 9 9 10 11 11 11 11 11 11 11 10 9 9 8 8 8 7 6 5 5 5 5 4 3 3 4 3 2 1 1 3 3 4 4 4 4 4 4 4 4 4 3 4 4 3 3 2 2 2 2 2 3 3 2 3
4 5 6 4 5 9 9 8 9 8 8 8 8 6 5 3 3 5 5 5 4 3 4 4 5 7 9 8 8 8 9 8 9 10 10 11 11 11 11 11 10 10 10 9 8 8 8 7 6 6 6 5 5 4 3 3 3 3 1 1 2 3 3 4 4 4 4 4 4 4 4 4 3 3 3 3 2 2 2 2 2 2 2 3 2 3
4 5 6 5 5 7 7 7 8 7 6 7 6 7 6 5 5 5 5 5 5 3 3 5 7 7 7 7 7 9 9 9 9 10 10 10 11 12 12 11 11 10 9 9 8 8 8 8 6 6 5 5 4 3 3 3 3 2 1 2 3 3 4 4 4 4 3 3 3 4 3 3 3 3 2 2 2 1 1 1 2 1 2 2 2 2
6 5 6 6 5 7 8 7 6 4 5 7 7 7 7 5 5 5 4 5 5 5 5 6 7 7 7 7 7 8 9 9 10 10 10 10 11 11 12 11 11 10 10 9 9 9 8 7 6 5 5 4 3 3 3 3 2 1 1 2 3 4 4 4 4 3 3 3 3 3 3 3 3 2 1 1 1 1 1 2 2 1 2 2 2 2
8 6 6 6 5 7 7 5 4 5 6 7 5 5 5 4 3 3 2 4 5 5 5 6 7 8 8 8 8 8 9 10 10 10 10 10 11 11 11 11 11 10 11 10 10 9 8 6 5 5 4 4 3 2 2 2 1 1 1 2 3 4 4 4 4 3 3 3 3 3 3 2 2 1 1 0 1 1 1 2 2 2 2 2 2 3
10 8 7 6 6 7 6 6 7 8 8 7 5 5 4 3 2 1 3 6 7 6 6 7 8 8 7 7 7 8 8 9 10 10 10 10 11 11 11 11 11 11 11 10 9 8 7 6 4 4 3 3 2 2 1 1 0 1 2 2 3 3 4 4 3 3 3 3 3 3 3 2 2 1 0 1 1 2 1 2 2 2 2 2 2 3
12 10 9 8 8 8 8 9 9 8 8 8 9 9 8 7 6 5 4 6 8 7 6 6 6 6 6 6 6 7 8 10 11 12 11 11 11 12 12 11 11 11 11 10 8 7 6 5 4 3 3 3 3 2 1 1 1 2 2 3 3 3 4 4 3 3 3 3 3 3 3 2 2 1 1 1 2 2 2 2 2 2 2 2 3 3
14 13 11 10 10 9 8 9 9 8 9 10 11 12 10 8 8 7 6 7 8 7 5 5 5 6 6 6 7 7 9 11 12 13 12 11 11 11 12 11 11 10 10 8 7 6 5 4 3 3 4 3 3 3 2 1 2 3 3 3 3 4 4 3 3 3 3 3 3 3 3 2 1 0 1 2 3 3 2 2 2 3 3 3 3 4
15 14 13 13 13 12 11 12 11 10 11 11 11 12 9 7 7 6 6 7 9 8 5 3 5 6 6 6 7 8 9 11 12 13 12 12 12 12 12 12 11 9 9 7 6 5 4 4 3 4 4 4 3 3 2 3 4 4 4 4 4 4 4 3 3 3 3 3 3 3 2 1 0 1 2 3 3 2 2 2 2 3 3 3 3 4
16 15 15 16 17 15 14 15 14 13 12 12 11 11 9 7 5 5 6 8 9 8 6 4 4 6 6 6 7 8 10 11 12 13 12 11 12 12 12 11 10 9 8 7 6 5 4 4 4 4 4 4 4 3 3 4 5 5 5 5 5 4 4 4 3 3 3 2 2 2 2 1 0 1 2 3 3 2 2 2 2 3 3 4 4 4
16 15 15 17 18 17 17 17 16 15 15 14 13 13 11 8 6 6 8 9 9 8 7 6 6 7 7 7 8 10 11 12 12 12 11 11 11 12 12 11 10 8 7 6 5 4 4 4 4 4 4 4 4 4 4 5 5 5 5 5 5 4 4 3 3 3 2 2 2 2 1 0 0 1 2 2 3 3 2 2 3 3 4 4 4 4
14 14 15 16 16 16 17 18 17 16 16 15 13 13 12 10 9 10 10 9 8 8 9 8 8 8 8 9 10 11 11 12 11 11 11 11 11 11 11 10 8 7 6 5 4 4 4 4 4 4 4 4 5 5 5 6 6 5 5 5 4 4 3 3 3 2 2 2 2 2 1 1 1 1 2 2 3 3 2 2 2 3 4 4 5 5
14 13 14 15 15 15 15 16 16 16 16 16 13 12 11 11 12 12 10 8 9 9 8 8 9 9 9 10 11 11 11 11 11 11 11 11 11 11 10 9 7 6 6 5 4 4 5 4 4 4 4 5 6 6 6 6 6 6 5 5 4 4 3 3 2 2 2 2 2 2 1 1 0 1 1 2 3 3 2 2 2 3 4 4 4 5
13 13 13 14 14 15 15 16 16 16 16 15 13 12 12 11 12 11 8 8 9 8 8 8 9 9 10 10 10 11 11 11 11 11 11 11 11 11 9 8 7 6 5 5 4 5 5 5 4 4 5 6 6 6 6 7 6 6 6 5 4 4 3 3 3 3 3 3 3 2 2 1 1 1 1 2 2 3 3 3 3 3 4 4 4 5
12 12 12 12 12 14 15 16 15 15 14 13 12 12 11 9 9 9 8 8 9 9 9 9 9 9 10 10 10 10 11 11 11 11 11 11 11 10 8 8 7 6 5 5 5 5 5 5 5 5 6 7 7 7 7 7 6 6 6 6 5 5 4 4 4 4 4 4 3 2 2 2 2 2 2 2 3 4 4 3 3 4 4 4 5 5
12 11 10 9 10 10 11 12 12 12 11 10 10 11 10 9 9 9 8 9 10 10 10 10 10 10 10 10 10 11 11 11 11 11 11 11 10 9 8 7 7 6 6 5 5 5 6 6 6 6 6 7 7 7 7 7 7 7 7 6 6 6 5 5 5 4 5 4 3 3 3 2 2 2 3 3 3 4 4 4 4 4 5 5 5 5
12 10 9 10 9 9 10 10 10 10 10 9 9 9 9 9 9 9 9 9 10 10 10 10 10 10 10 10 11 11 11 11 11 11 11 10 9 9 8 7 7 6 6 6 6 6 6 6 7 7 7 7 7 8 7 7 7 7 7 7 7 7 6 6 5 5 5 5 4 3 3 3 2 3 3 4 4 4 4 4 4 5 5 5 5 6
12 10 9 10 10 10 11 10 8 8 9 9 9 9 9 9 9 9 9 9 9 10 10 10 10 10 10 10 11 10 11 11 10 10 10 10 9 8 8 7 6 6 5 5 6 6 6 7 7 7 7 7 7 8 8 7 7 8 8 8 8 7 7 7 6 5 5 5 4 3 3 3 4 5 5 4 5 5 5 5 5 5 5 5 5 6
13 12 10 10 10 10 11 11 9 7 7 8 9 10 9 8 8 8 8 9 9 9 10 10 10 10 10 10 10 10 10 10 10 10 10 9 8 8 8 7 6 5 5 5 6 7 7 7 7 7 7 7 7 7 8 8 8 8 8 8 8 8 8 7 7 6 5 5 5 5 5 5 5 6 6 5 6 6 6 6 5 5 6 6 6 6
13 12 10 10 11 12 13 13 12 9 9 11 11 10 9 9 8 8 9 9 9 9 9 9 10 11 11 10 10 10 10 10 10 10 9 9 8 8 7 6 5 5 5 6 7 7 7 7 7 7 7 8 7 7 8 8 9 9 8 8 8 8 8 8 7 7 6 6 6 6 6 6 6 6 7 7 7 7 7 7 7 7 7 7 7 7
13 12 11 12 13 15 16 16 14 11 11 13 12 11 10 10 9 9 10 10 9 9 9 9 10 10 11 11 10 10 10 10 10 9 8 8 8 7 6 5 5 5 6 6 7 7 8 8 8 8 8 8 8 8 8 9 9 9 9 8 9 9 9 9 8 7 7 7 6 6 7 7 7 7 8 8 8 8 8 7 8 8 8 8 8 8
Wind_Direction
244 246 244 236 236 240 249 260 270 278 277 277 281 282 279 276 287 291 286 284 277 282 287 283 291 290 276 278 281 268 258 268 283 288 298 305 296 276 252 243 240 241 246 242 233 230 231 234 234 231 227 221 218 219 217 217 220 222 224 225 227 225 223 221 217 215 210 201 203 208 210 220 233 258 279 296 314 328 337 337 337 338 341 343 342 336
247 245 245 238 234 238 250 263 278 288 283 283 285 283 284 286 291 290 285 285 274 276 288 286 292 295 279 275 276 270 269 271 271 276 283 283 281 280 261 247 242 242 248 246 236 232 234 236 236 234 230 222 218 219 219 220 221 220 224 227 229 227 225 226 225 221 217 218 222 226 229 235 246 266 285 301 314 333 348 353 354 351 347 346 346 342
250 248 245 240 239 244 254 266 283 289 286 283 281 281 288 296 307 304 296 295 274 273 293 290 288 295 285 272 269 264 266 267 262 259 264 268 272 282 268 252 246 241 245 246 239 235 235 235 234 234 232 227 223 222 222 223 222 220 224 230 232 230 227 229 230 228 226 230 238 246 247 247 255 273 292 305 313 335 354 0 2 356 352 350 349 349
246 247 241 238 243 252 261 270 279 285 289 284 275 273 279 288 307 311 307 307 274 271 297 297 290 298 293 277 268 258 257 265 264 258 261 265 267 271 266 257 248 237 239 245 243 238 235 233 233 233 232 231 228 227 226 224 224 224 227 231 233 232 231 231 231 233 234 236 248 263 260 258 263 270 287 304 310 326 345 354 355 352 353 353 349 349
245 246 241 242 250 253 260 268 271 275 285 285 270 265 274 282 287 287 300 311 294 282 295 305 303 303 292 274 269 260 254 264 271 265 266 269 270 274 269 263 255 242 241 245 244 241 236 232 232 232 231 232 231 230 230 228 228 228 228 231 234 234 233 233 232 232 235 238 244 256 256 255 258 256 255 265 289 309 330 342 346 347 350 353 348 344
248 247 244 250 257 256 256 262 264 266 278 283 273 267 273 279 279 283 299 312 313 298 286 297 305 303 295 274 267 264 255 263 272 264 261 268 275 275 266 268 271 262 257 254 247 240 237 233 231 231 230 231 233 234 233 233 231 230 230 232 235 236 235 233 232 229 233 236 231 224 223 228 231 237 243 250 270 288 312 331 339 346 351 353 349 342
249 247 243 247 254 259 260 263 261 259 269 277 274 274 280 287 288 291 302 308 307 298 287 291 294 297 303 286 270 263 254 258 268 260 256 267 273 266 262 270 275 274 272 265 253 243 237 233 230 230 230 231 234 236 237 236 233 231 232 233 235 237 237 234 231 229 231 233 227 221 222 225 227 233 245 258 273 285 304 323 333 344 352 355 351 343
250 254 253 251 254 259 261 263 261 255 262 273 273 275 281 290 292 292 300 301 295 297 297 294 291 296 304 295 279 264 254 258 262 256 257 265 266 265 268 273 275 274 274 270 259 246 239 234 232 231 232 234 236 237 238 238 235 233 233 235 237 238 237 235 232 231 231 230 225 223 226 231 234 238 245 254 272 289 305 320 328 339 349 351 352 347
252 256 255 254 259 261 257 258 260 258 262 266 270 277 278 279 284 292 300 297 297 308 305 296 295 297 299 302 298 266 249 251 251 252 259 264 264 268 273 274 275 276 276 271 260 247 240 236 235 237 236 236 237 238 238 238 238 237 237 238 238 238 238 235 233 231 231 228 226 225 228 234 240 243 245 251 266 284 302 313 320 332 343 341 339 339
254 254 253 252 255 254 254 257 254 252 261 265 270 286 289 283 285 295 298 294 300 308 296 295 304 299 296 302 303 271 250 248 249 255 263 268 269 271 272 272 276 281 280 273 260 249 242 238 238 241 240 238 239 239 239 239 241 241 241 239 237 237 237 235 233 231 228 226 227 229 230 231 234 235 237 243 255 273 291 302 312 327 338 338 335 334
253 258 256 251 247 243 247 255 249 244 257 269 280 289 292 291 291 296 296 294 297 290 286 298 307 299 294 293 288 273 256 250 252 260 269 278 276 272 272 275 279 283 281 274 262 254 249 244 244 243 242 241 240 240 239 240 242 242 241 240 238 237 236 234 233 229 225 225 228 229 228 228 227 226 229 235 246 263 279 287 300 318 331 339 337 332
259 263 258 253 253 250 251 258 256 255 260 272 283 283 285 291 297 302 302 299 290 276 286 301 308 303 291 282 280 278 274 265 256 257 267 273 271 271 275 279 279 280 280 274 265 259 255 253 251 248 247 246 241 239 238 240 241 241 240 240 239 238 236 234 232 228 225 225 228 230 229 229 229 230 233 236 246 261 270 276 287 299 311 328 330 325
261 257 256 257 258 251 250 259 263 267 273 279 284 282 280 284 293 297 294 296 284 277 288 301 309 308 289 282 287 286 281 269 253 254 260 263 267 273 278 280 279 280 282 277 268 262 259 257 256 253 251 249 244 240 238 240 241 241 241 240 239 239 237 234 231 229 228 228 230 232 232 232 234 236 237 239 250 263 268 272 278 282 286 300 309 313
259 258 256 254 257 248 240 249 258 262 266 271 273 271 269 272 283 285 284 294 294 289 300 307 303 297 289 292 305 310 296 265 244 249 255 260 268 274 277 281 283 285 285 280 274 266 261 259 257 256 253 252 250 245 242 243 243 243 242 241 239 238 238 236 234 233 234 234 235 236 236 235 235 238 239 242 252 260 267 271 273 276 277 284 295 303
253 259 247 232 250 254 244 244 244 245 255 265 265 264 265 261 264 272 276 286 291 296 310 316 304 283 279 289 306 321 318 301 271 266 272 277 282 286 290 292 291 291 289 284 278 270 266 263 259 257 256 254 250 246 246 247 245 243 242 240 239 238 240 240 236 234 235 235 237 238 238 236 235 238 240 245 254 258 262 266 268 271 271 277 289 296
247 250 244 243 253 256 258 257 245 241 256 268 271 272 269 259 256 266 271 276 284 298 309 310 295 264 265 290 310 324 327 326 315 299 300 300 298 299 297 296 296 295 292 287 280 275 271 267 262 261 258 253 248 246 249 251 247 243 243 244 243 242 243 242 238 236 236 237 238 236 236 237 237 240 245 246 251 254 256 261 267 270 269 274 284 291
247 251 254 262 265 259 256 251 234 229 246 267 275 269 267 259 253 267 277 281 287 297 299 296 277 266 284 300 309 321 322 319 319 315 317 316 311 307 300 297 298 296 294 289 282 277 274 270 267 263 260 254 249 248 253 255 250 245 246 247 245 242 242 240 239 238 237 237 236 234 235 237 236 240 245 244 244 247 251 261 273 274 270 273 279 288
245 256 261 260 268 272 259 233 222 228 238 267 277 269 270 273 265 269 280 287 293 290 279 285 274 264 274 287 298 313 314 309 315 318 321 324 322 318 312 308 304 302 300 295 289 284 279 275 271 268 267 262 257 257 258 259 256 252 251 249 245 241 239 237 237 237 236 235 233 233 236 236 237 241 242 238 238 242 248 260 274 276 273 276 281 287
242 253 262 253 260 279 271 224 230 252 263 279 283 276 272 269 265 272 278 276 286 289 271 281 285 269 263 274 289 299 297 299 311 318 321 325 326 324 322 319 315 313 310 302 296 290 283 280 278 276 275 270 268 267 264 264 259 252 252 252 245 242 239 237 236 235 234 232 230 234 238 238 240 241 236 234 239 243 249 258 269 276 278 279 281 285
235 245 258 253 258 273 266 236 237 253 268 286 293 287 274 259 254 263 266 254 254 264 255 268 287 280 265 265 271 276 283 294 307 319 322 323 327 327 325 323 321 319 314 306 300 294 291 291 289 286 281 276 277 273 269 269 258 247 249 252 247 244 243 238 234 231 229 228 227 232 236 237 237 234 231 237 240 240 248 256 263 276 280 278 280 286
234 245 252 253 261 258 250 253 247 249 261 273 283 283 277 270 261 260 265 259 247 245 245 259 279 279 267 262 264 270 284 296 303 315 318 319 328 333 330 328 325 322 317 308 302 299 300 302 299 294 285 279 277 273 272 270 256 244 246 254 253 249 248 243 234 226 221 220 221 224 230 236 233 228 229 235 233 233 246 254 259 272 277 275 281 289
234 247 253 256 258 249 247 250 246 253 259 256 262 268 264 263 261 259 271 273 258 245 242 250 267 271 264 260 264 270 281 296 304 310 314 319 328 333 333 333 329 325 320 314 308 304 302 303 304 300 294 287 280 278 279 270 253 243 247 263 263 258 266 257 232 214 206 208 216 227 238 240 229 225 228 226 225 233 244 250 256 266 271 273 282 291
230 247 260 259 251 246 251 251 251 267 263 244 247 259 258 257 252 248 261 270 266 254 249 258 270 267 260 261 267 274 288 303 307 309 314 320 326 329 333 335 333 330 325 321 316 308 302 300 302 302 302 302 295 290 288 271 255 250 254 275 276 275 295 269 205 180 181 206 222 238 244 233 218 218 223 219 223 234 240 247 256 264 270 273 282 290
237 253 266 268 260 252 254 258 264 276 260 242 259 269 262 251 245 244 253 259 262 259 255 269 279 265 259 268 275 283 302 311 309 309 315 321 325 328 330 332 332 330 325 322 318 312 308 305 305 300 299 305 302 296 293 269 266 269 266 289 295 294 316 261 171 163 197 224 230 239 232 212 201 207 213 214 223 232 235 248 258 266 273 274 279 283
245 257 266 280 278 263 254 258 267 270 262 258 269 273 259 244 247 255 258 258 265 264 256 258 265 259 258 272 285 292 306 313 311 311 315 319 323 324 324 326 329 329 326 324 322 319 315 314 315 307 293 299 302 298 307 292 283 286 283 306 318 307 312 152 185 228 240 226 226 218 205 191 190 199 205 212 225 230 236 253 258 264 271 271 277 278
250 252 254 255 248 238 232 231 242 262 272 275 278 278 267 255 257 257 252 251 257 261 261 255 251 254 261 273 287 294 302 308 310 314 317 319 319 318 319 323 329 333 331 328 328 327 323 323 336 339 316 317 314 299 305 305 298 301 298 311 327 307 244 216 262 245 218 216 204 188 184 185 190 198 204 213 226 231 241 253 252 260 269 271 279 278
260 249 243 228 218 222 225 230 241 259 275 286 287 279 265 263 272 263 245 236 234 244 269 265 244 241 260 272 284 291 296 301 305 311 314 313 313 313 317 322 329 336 336 333 334 337 337 340 350 356 350 345 328 303 303 308 310 314 306 302 315 283 246 261 275 227 195 188 178 176 184 190 190 195 203 214 226 234 244 250 251 262 271 277 282 275
268 252 240 224 221 225 227 235 249 255 266 288 289 277 276 282 285 274 234 219 217 219 250 261 250 248 269 278 286 292 299 302 303 306 307 308 311 314 318 323 330 339 341 341 345 351 355 356 355 356 355 351 337 317 315 315 313 318 316 298 273 239 228 231 221 188 173 172 173 180 190 190 191 198 206 216 225 234 245 249 255 264 269 279 281 270
253 251 237 225 232 236 231 238 252 255 262 286 291 283 292 295 276 241 210 211 218 221 231 249 262 274 280 285 288 292 298 301 302 305 307 309 313 316 320 322 326 336 344 347 352 353 352 351 350 349 349 350 348 334 326 323 317 315 316 304 261 227 212 201 187 176 177 180 182 188 194 197 202 207 209 213 219 232 244 249 256 259 265 276 272 265
253 255 239 227 237 247 244 244 254 267 273 287 302 296 286 258 212 194 193 213 228 223 232 257 279 287 289 288 290 294 299 302 304 307 310 311 312 315 319 320 321 328 339 345 346 343 339 337 337 340 342 344 345 341 338 335 326 318 314 304 249 197 187 182 175 173 179 184 188 196 202 203 203 203 203 208 217 235 247 252 256 255 260 265 261 277
272 261 252 237 240 252 255 248 249 268 278 286 300 293 246 177 183 191 194 220 254 259 272 286 292 294 297 295 297 302 304 306 306 305 309 310 310 314 317 316 318 324 332 338 335 329 327 325 327 331 332 334 336 338 344 346 340 334 330 327 163 164 170 172 170 171 180 184 188 196 199 198 197 197 202 211 226 242 248 252 259 261 257 251 261 290
279 263 261 259 249 252 255 249 249 266 283 290 286 256 214 190 203 210 219 238 250 263 285 303 301 293 296 301 306 307 307 308 305 303 309 311 310 315 316 315 317 321 327 331 325 317 316 315 318 322 324 328 332 334 341 348 349 349 1 102 141 155 160 163 164 167 175 180 183 188 190 189 189 193 204 215 224 236 241 245 262 270 249 241 262 286
271 266 260 261 258 258 259 249 248 263 282 287 271 236 226 231 220 218 234 245 255 277 284 287 288 287 296 309 315 314 313 311 305 304 309 310 310 314 316 315 315 316 322 324 316 311 310 308 311 316 318 322 325 330 340 347 354 7 75 125 142 151 150 152 158 164 172 177 178 181 181 182 183 187 201 210 212 225 238 244 261 266 244 245 264 277
261 264 259 258 256 257 260 252 246 251 252 255 251 233 232 234 216 216 237 250 271 298 298 294 293 291 298 307 310 312 313 310 306 306 309 310 310 312 313 313 313 312 315 315 311 310 309 305 307 311 313 318 321 330 344 350 3 39 104 133 145 147 145 147 151 154 160 167 174 178 177 178 179 177 189 206 214 236 253 259 259 251 249 258 269 272
261 261 259 261 252 249 256 248 226 227 238 248 253 235 226 227 212 214 268 281 288 304 309 307 300 293 296 301 304 308 309 310 312 312 312 311 310 311 311 311 310 309 309 309 307 306 304 301 301 303 303 305 308 324 345 349 12 78 117 137 146 150 150 150 147 144 148 156 166 170 166 169 175 173 186 250 294 284 273 267 255 242 249 262 267 270
252 252 252 258 252 246 247 231 219 232 250 254 245 230 230 248 249 253 307 298 295 304 310 308 303 302 304 306 309 311 310 314 320 318 314 313 311 311 311 309 308 308 307 307 306 302 297 293 290 289 286 283 282 294 324 330 320 138 142 147 148 149 151 150 139 133 141 147 155 162 160 163 171 183 244 289 311 313 288 261 249 239 243 259 268 271
238 240 248 257 251 238 235 236 236 247 261 257 244 240 246 254 253 249 265 285 291 292 293 298 302 305 310 310 310 312 315 322 324 318 314 314 312 312 312 309 308 308 309 310 308 302 294 286 281 273 264 258 254 259 279 269 178 154 151 157 152 147 151 146 129 128 138 142 148 156 156 156 162 199 293 300 305 303 279 251 244 242 248 259 267 270
231 232 238 248 252 243 240 248 249 246 253 256 253 256 258 247 242 251 262 276 283 276 264 279 290 291 301 304 300 309 322 326 322 315 313 313 312 314 316 314 311 310 311 311 309 301 289 276 266 251 244 240 235 243 247 200 167 154 151 159 156 151 151 143 128 130 135 136 144 150 151 152 156 310 324 321 311 296 273 253 250 255 261 261 264 273
234 233 232 241 249 247 244 249 246 240 248 255 256 261 257 230 231 262 272 267 268 264 254 269 288 288 290 290 294 313 326 323 316 312 311 311 311 312 314 315 314 314 313 309 305 294 272 255 245 235 234 230 224 229 219 181 163 153 151 156 154 151 150 142 135 134 133 136 145 149 153 160 161 335 331 330 322 303 279 264 260 263 264 260 268 281
239 238 236 241 246 244 242 245 245 243 248 251 254 255 244 227 245 275 267 255 256 254 249 259 286 290 288 289 303 319 321 315 312 312 311 310 311 312 312 313 314 313 309 306 300 284 256 238 228 225 229 225 216 213 197 175 163 154 152 154 153 152 150 143 137 133 131 138 147 154 166 184 243 339 337 337 334 319 292 273 269 270 268 266 275 285
239 240 239 240 243 242 239 240 244 247 247 248 252 251 242 244 272 268 249 248 246 244 253 270 284 288 286 289 302 312 313 313 315 315 312 311 312 313 314 314 313 310 304 298 288 267 242 230 225 225 229 222 210 200 185 172 163 156 155 156 157 157 154 147 139 133 134 140 148 158 171 152 45 358 348 345 342 335 311 284 277 275 274 273 277 285
237 241 241 238 239 240 238 238 242 246 246 242 244 249 247 250 260 254 248 248 242 243 260 276 283 285 283 286 297 305 312 317 319 317 315 313 313 313 313 313 312 308 300 289 273 251 234 228 227 227 226 214 201 192 181 173 166 162 160 162 163 163 161 156 148 140 140 143 145 149 144 101 50 5 355 349 345 340 319 295 284 276 279 280 276 279
232 238 243 240 236 235 236 237 237 241 243 239 236 246 251 246 245 248 253 254 249 250 263 278 287 288 286 290 299 305 312 317 318 317 316 315 314 314 311 307 305 302 293 280 260 239 229 228 229 226 216 204 195 188 181 176 171 169 170 172 175 175 176 172 165 157 156 154 151 150 145 135 81 359 356 346 341 336 316 293 283 277 281 286 281 277
233 238 245 244 236 230 232 236 237 238 239 234 229 237 243 240 240 243 248 255 257 261 271 282 288 290 290 295 301 305 309 312 312 313 315 314 312 312 309 303 299 293 285 273 250 232 227 226 225 219 207 197 192 190 188 184 180 179 182 186 188 190 193 188 178 173 173 170 165 166 168 186 227 298 326 320 319 320 308 289 280 277 279 286 287 281
234 237 240 242 237 230 230 234 237 236 233 225 220 225 231 234 238 238 241 253 262 269 277 280 281 286 293 298 301 304 307 309 308 309 312 311 308 307 305 298 292 284 276 265 246 233 228 223 216 206 199 195 195 196 196 194 190 190 193 198 200 202 200 194 186 185 188 186 181 184 199 218 240 271 294 293 295 304 303 290 280 277 277 283 288 285
238 240 236 238 236 229 227 229 229 226 224 219 217 220 223 229 236 239 244 257 266 272 278 279 278 284 291 295 299 303 304 305 307 308 309 308 306 303 300 295 289 281 270 257 241 230 222 216 208 199 194 195 199 202 205 205 201 201 203 205 206 207 203 198 194 194 195 195 195 206 221 232 252 273 277 278 290 303 305 296 286 281 281 284 286 285
238 240 234 234 231 220 220 227 225 218 216 214 214 220 226 230 238 245 252 262 270 273 277 281 284 287 290 293 298 302 302 303 306 307 306 306 303 298 295 290 283 274 263 248 233 221 214 211 207 201 197 198 203 207 211 213 210 209 209 209 209 207 204 201 200 201 203 206 211 225 234 242 270 290 286 286 299 307 305 300 295 289 287 286 286 285
234 239 237 235 231 220 217 222 219 213 215 216 216 224 234 239 246 256 260 266 274 277 280 286 288 288 291 296 301 303 304 304 305 304 303 302 297 293 291 286 278 269 256 238 223 216 213 211 208 206 205 207 210 211 212 215 215 213 211 211 209 207 205 205 206 208 211 215 221 227 232 245 272 288 290 292 300 304 303 303 302 296 291 288 286 283
235 237 234 227 223 219 218 217 212 214 229 233 228 231 240 243 247 256 263 269 274 277 282 287 287 288 292 296 300 304 305 304 304 303 301 297 292 288 285 279 272 263 247 229 219 216 216 213 211 211 212 215 217 216 212 213 215 213 212 211 210 209 209 210 214 218 220 225 232 235 238 252 273 282 285 290 296 299 300 301 302 301 298 296 292 288
226 226 228 226 222 223 225 222 219 224 237 239 234 234 241 246 249 256 264 270 273 276 280 285 288 293 296 297 299 303 304 303 303 302 298 294 290 285 280 273 266 257 243 228 220 218 218 216 215 215 216 218 220 218 214 214 216 215 213 213 213 213 214 216 221 226 227 231 241 245 246 257 272 279 282 289 294 295 295 296 297 298 298 296 292 288
221 222 229 230 226 227 228 226 225 229 236 238 237 239 246 253 256 259 263 267 271 276 281 284 288 293 297 297 298 301 303 302 299 297 296 294 289 284 279 270 259 252 242 229 220 217 218 218 217 216 217 220 221 219 217 216 216 215 215 216 217 219 219 221 225 228 230 235 243 247 250 258 269 275 279 285 289 290 291 293 294 295 294 293 290 286